Location: Franzen
(48.6167°N, 15.3833°E)
Time: 13:49:54
(UTC+00:00)

NOSS 0 Rocket - Pass Details

Date: 22 April 2021
Orbit: 935 x 955 km, 70.0° (Epoch: 16 May)

Event Time Altitude Azimuth Distance (km) Brightness Sun altitude
Rises 18:24:02 0° 330° (NNW) 3,627 8.0 -4.5°
Reaches altitude 10° 18:26:34 10° 332° (NNW) 2,681 7.2 -4.8°
Maximum altitude 18:32:49 78° 59° (ENE) 978 4.0 -5.8°
Drops below altitude 10° 18:39:03 10° 146° (SE) 2,676 5.8 -6.7°
Enters shadow 18:40:38 - 147° (SSE) 3,261 6.2 -6.9°
